Hauptseite
METAR-TAF:

METAR-TAF

Flughäfen :

Fliegerhorst Büchel

Büchel, Deutschland

Breite: 50-10N, Länge: 007-04E, Höhe: 478 m

Beobachtung

Neuester Wetterbericht von vor 1 Stunde und 4 Minuten, um 01:20 UTC
Wind 4 kt aus West/Südwest
Temperatur 1°C
Luftfeuchtigkeit 80%
Luftdruck 1022 hPa
Sichtweite 10 km oder mehr

METAR: ETSB 250120Z AUTO 25004KT 9999 // ////// 01/M02 Q1022 ///

Zeit: 03:24 (02:24 UTC)


TAF: fehlend

Wetterbeobachtungen und Prognosen von mehr als 4000 Flughäfen (METAR und TAF Bericht).

Die verfügbaren Stationen werden durch gelbe und rote Markierungen auf der Karte dargestellt.

Führen Sie die Maus auf sie, um den Namen der Station zu sehen.

Darauf klicken, um die Beobachtung von Wetterbeobachtungen und Prognosen zu sehen.

Um die Karte zu ändern : klicken Sie auf den grünen Tasten mit einem schwarzen Kreuz Zum Vergrößern, auf den grünen Button mit einem Gedankenstrich zu verkleinern, oder auf die grünen Pfeile für benachbarte Karten.


METAR-TAF: